HB9TJM-8 Weather Reports


time (UTC)temp
C
wind
direction
speed
KPH
gust
KPH
rain 1hr
cm
rain 24hr
cm
rain mn
cm
humidity
%
barometer
mb
20260507202949 8 354 3.2 6.4 0.00 0.30 0.30 79 1015.3
20260507202442 8 349 3.2 4.8 0.00 0.30 0.30 78 1015.3
20260507201934 8 342 3.2 3.2 0.00 0.30 0.30 80 1015.5
20260507201427 8 336 3.2 4.8 0.00 0.30 0.30 79 1015.6
20260507200919 8 328 3.2 4.8 0.00 0.30 0.30 78 1015.4
20260507200411 8 342 4.8 4.8 0.00 0.30 0.30 79 1015.4
20260507195904 8 342 4.8 4.8 0.00 0.30 0.30 79 1015.6
20260507195356 8 336 3.2 4.8 0.00 0.30 0.30 78 1015.3
20260507194340 8 341 4.8 4.8 0.00 0.30 0.30 79 1014.9
20260507193832 8 335 4.8 4.8 0.00 0.30 0.30 79 1015.2
20260507193324 8 332 4.8 4.8 0.00 0.30 0.30 79 1014.6
20260507192817 8 335 3.2 4.8 0.00 0.30 0.30 80 1014.6
20260507192309 8 340 3.2 4.8 0.00 0.30 0.30 81 1015.0
20260507191802 8 351 3.2 3.2 0.00 0.30 0.30 82 1014.8
20260507191254 8 326 3.2 4.8 0.00 0.30 0.30 82 1014.4
20260507190746 8 342 3.2 3.2 0.00 0.30 0.30 82 1014.4
20260507190239 8 348 1.6 4.8 0.00 0.30 0.30 82 1014.6
20260507185731 8 352 0.0 3.2 0.00 0.30 0.30 84 1014.8
20260507185224 8 332 1.6 3.2 0.00 0.30 0.30 82 1014.8
20260507184716 8 310 1.6 3.2 0.00 0.30 0.30 82 1014.5
20260507184209 8 351 1.6 3.2 0.00 0.30 0.30 81 1014.3
20260507183701 8 37 0.0 1.6 0.00 0.30 0.30 80 1014.6
20260507183153 8 323 0.0 3.2 0.00 0.30 0.30 81 1014.3
20260507182645 9 342 3.2 4.8 0.00 0.30 0.30 80 1014.9
20260507182137 8 324 1.6 3.2 0.00 0.30 0.30 81 1014.4
20260507181629 8 49 0.0 0.0 0.00 0.30 0.30 81 1014.3
20260507181122 9 75 1.6 3.2 0.00 0.30 0.30 80 1014.5
20260507180614 9 96 4.8 4.8 0.00 0.30 0.30 81 1014.4
20260507175600 10 22 0.0 3.2 0.00 0.30 0.30 79 1014.0
20260507175052 10 316 0.0 3.2 0.00 0.30 0.30 79 1014.5
20260507174544 10 7 1.6 4.8 0.00 0.30 0.30 79 1013.9
20260507174036 10 135 0.0 4.8 0.00 0.30 0.30 80 1014.4
20260507173528 10 25 3.2 6.4 0.00 0.30 0.30 79 1014.4
20260507173021 10 291 3.2 4.8 0.00 0.30 0.30 80 1014.5
20260507172513 10 56 1.6 6.4 0.00 0.30 0.30 79 1014.5
20260507172006 10 116 0.0 3.2 0.00 0.30 0.30 80 1014.2
20260507171458 10 275 3.2 6.4 0.00 0.30 0.30 79 1014.5
20260507170950 10 288 3.2 8.0 0.00 0.30 0.30 79 1014.7
20260507170443 10 104 3.2 6.4 0.00 0.30 0.30 79 1014.5
20260507165935 10 51 4.8 6.4 0.00 0.30 0.30 79 1014.5
20260507164920 10 59 3.2 11.3 0.00 0.30 0.30 78 1014.5
20260507164413 11 70 3.2 6.4 0.00 0.30 0.30 78 1014.3
20260507163906 11 22 0.0 3.2 0.00 0.30 0.30 78 1014.4
20260507163358 11 262 3.2 4.8 0.00 0.30 0.30 77 1014.7
20260507162850 11 129 0.0 3.2 0.00 0.30 0.30 76 1014.8
20260507162342 11 306 0.0 9.7 0.00 0.30 0.30 76 1014.5
20260507161834 11 244 3.2 8.0 0.00 0.30 0.30 75 1014.9
20260507161327 11 253 3.2 4.8 0.00 0.30 0.30 74 1014.4
20260507160819 12 300 3.2 6.4 0.00 0.30 0.30 76 1014.3
20260507160311 12 274 3.2 3.2 0.00 0.30 0.30 76 1014.7
20260507155804 11 322 4.8 6.4 0.00 0.30 0.30 76 1014.4
20260507155256 11 296 3.2 8.0 0.00 0.30 0.30 75 1014.6
20260507154748 11 296 1.6 6.4 0.00 0.30 0.30 76 1014.3
20260507154241 11 256 3.2 4.8 0.00 0.30 0.30 76 1014.5
20260507153733 12 277 0.0 6.4 0.00 0.30 0.30 76 1014.2
20260507153225 12 329 3.2 4.8 0.00 0.30 0.30 74 1014.6
20260507152717 12 284 0.0 6.4 0.00 0.30 0.30 74 1014.3
20260507152210 12 224 3.2 4.8 0.00 0.30 0.30 74 1014.4
20260507151702 11 262 1.6 6.4 0.00 0.30 0.30 74 1014.2
20260507151154 11 236 3.2 8.0 0.00 0.30 0.30 74 1014.5
20260507150647 11 180 1.6 3.2 0.00 0.30 0.30 79 1014.5
20260507150139 11 42 3.2 8.0 0.00 0.30 0.30 81 1014.6
20260507145632 11 204 0.0 9.7 0.00 0.30 0.30 82 1014.5
20260507144617 11 222 1.6 8.0 0.00 0.30 0.30 81 1014.5
20260507144110 11 235 3.2 11.3 0.00 0.30 0.30 79 1014.5
20260507143602 11 264 3.2 8.0 0.00 0.30 0.30 78 1014.7
20260507143055 11 347 3.2 3.2 0.00 0.30 0.30 80 1014.6
20260507142547 11 355 4.8 9.7 0.00 0.30 0.30 77 1014.5
20260507142039 11 50 3.2 6.4 0.00 0.30 0.30 82 1014.8
20260507141531 11 17 4.8 8.0 0.00 0.30 0.30 80 1014.4
20260507141023 11 290 8.0 9.7 0.00 0.30 0.30 76 1014.7
20260507140516 11 277 3.2 6.4 0.00 0.30 0.30 76 1014.6
20260507140008 11 98 0.0 3.2 0.00 0.30 0.30 79 1014.8
20260507135502 11 290 1.6 8.0 0.00 0.30 0.30 77 1014.3
20260507134953 12 341 4.8 6.4 0.00 0.30 0.30 78 1014.6
20260507134446 12 69 3.2 8.0 0.00 0.30 0.30 76 1014.4
20260507133938 13 7 9.7 14.5 0.00 0.30 0.30 75 1014.6
20260507133431 12 261 4.8 8.0 0.00 0.30 0.30 76 1014.5
20260507132923 12 200 4.8 6.4 0.03 0.30 0.30 78 1014.8
20260507132415 11 276 1.6 4.8 0.03 0.30 0.30 82 1014.9
20260507131908 11 311 0.0 4.8 0.05 0.28 0.28 80 1014.7
20260507131401 12 24 1.6 3.2 0.05 0.28 0.28 79 1014.9
20260507130853 12 327 1.6 9.7 0.05 0.28 0.28 80 1014.6
20260507130345 12 17 3.2 4.8 0.05 0.28 0.28 71 1014.6
20260507125838 12 123 8.0 8.0 0.05 0.28 0.28 71 1014.6
20260507125330 12 254 1.6 3.2 0.05 0.28 0.28 81 1014.7
20260507124823 10 316 0.0 3.2 0.05 0.28 0.28 78 1014.7
20260507124315 10 35 0.0 3.2 0.05 0.28 0.28 81 1014.8
20260507123808 10 16 0.0 3.2 0.05 0.28 0.28 76 1014.8
20260507123301 10 16 1.6 3.2 0.05 0.28 0.28 82 1014.8
20260507122753 10 280 0.0 3.2 0.05 0.28 0.28 80 1015.1
20260507122245 10 335 0.0 3.2 0.03 0.28 0.28 84 1014.7
20260507121737 11 12 0.0 1.6 0.00 0.25 0.25 77 1014.8
20260507121229 11 208 1.6 3.2 0.00 0.25 0.25 75 1015.1
20260507120721 11 88 1.6 3.2 0.00 0.25 0.25 84 1014.7
20260507115706 11 23 0.0 3.2 0.00 0.25 0.25 82 1014.6
20260507115159 11 84 6.4 8.0 0.00 0.25 0.25 74 1014.9
20260507114651 12 82 6.4 8.0 0.00 0.25 0.25 73 1014.8
20260507114144 12 96 4.8 4.8 0.00 0.25 0.25 75 1014.8
20260507113636 11 114 1.6 3.2 0.00 0.25 0.25 78 1015.0
20260507113129 11 178 1.6 3.2 0.00 0.23 0.23 75 1014.9
20260507112621 11 27 0.0 3.2 0.00 0.23 0.23 79 1015.1
20260507112114 10 131 1.6 4.8 0.00 0.23 0.23 77 1015.0
20260507111606 10 85 4.8 6.4 0.00 0.23 0.23 80 1014.9
20260507111059 10 88 8.0 12.9 0.03 0.23 0.23 81 1015.0
20260507110551 10 93 4.8 6.4 0.03 0.23 0.23 81 1014.6
20260507110044 10 87 3.2 3.2 0.08 0.23 0.23 83 1014.8
20260507105536 10 145 3.2 4.8 0.15 0.23 0.23 88 1015.0
20260507105029 10 157 0.0 4.8 0.23 0.23 0.23 86 1015.1
20260507104521 10 215 3.2 4.8 0.23 0.23 0.23 83 1014.7
20260507104015 10 187 3.2 3.2 0.23 0.23 0.23 88 1014.7
20260507103506 9 168 3.2 3.2 0.23 0.23 0.23 88 1014.8
20260507102958 8 173 0.0 3.2 0.23 0.23 0.23 85 1015.1
20260507102451 8 115 0.0 1.6 0.23 0.23 0.23 88 1014.9
20260507101943 8 106 3.2 4.8 0.23 0.23 0.23 87 1015.1
20260507101436 9 194 4.8 4.8 0.23 0.23 0.23 89 1015.1
20260507100928 9 122 1.6 3.2 0.23 0.23 0.23 89 1014.8
20260507100420 8 159 3.2 6.4 0.20 0.20 0.20 86 1015.0
20260507095913 9 304 0.0 6.4 0.18 0.18 0.18 87 1015.7
20260507095405 10 182 3.2 8.0 0.08 0.08 0.08 83 1015.2
20260507094857 10 55 0.0 9.7 0.00 0.00 0.00 82 1014.6
20260507094350 10 137 4.8 8.0 0.00 0.00 0.00 82 1014.8
20260507093842 10 145 8.0 8.0 0.00 0.00 0.00 82 1014.9
20260507093335 10 118 3.2 11.3 0.00 0.00 0.00 82 1014.8
20260507092828 10 157 4.8 8.0 0.00 0.00 0.00 77 1014.8
20260507092321 11 158 4.8 11.3 0.00 0.00 0.00 77 1015.0
20260507091813 10 124 8.0 9.7 0.00 0.00 0.00 79 1014.8
20260507091306 10 126 8.0 8.0 0.00 0.00 0.00 77 1014.6
20260507090759 10 162 3.2 6.4 0.00 0.00 0.00 79 1014.5
20260507090251 10 137 9.7 11.3 0.00 0.00 0.00 79 1014.9
20260507085743 10 181 0.0 12.9 0.00 0.00 0.00 79 1014.2
20260507085235 10 127 3.2 14.5 0.00 0.00 0.00 81 1014.7
20260507084728 10 126 4.8 8.0 0.00 0.00 0.00 80 1014.9
20260507084221 10 158 8.0 8.0 0.00 0.00 0.00 82 1014.8
20260507083713 10 157 4.8 8.0 0.00 0.00 0.00 81 1014.5
20260507083206 10 140 3.2 8.0 0.00 0.00 0.00 80 1014.4
20260507082658 10 172 4.8 8.0 0.00 0.00 0.00 79 1014.4
20260507082150 10 140 9.7 9.7 0.00 0.00 0.00 79 1014.7
20260507081644 10 187 4.8 6.4 0.00 0.00 0.00 80 1014.3
20260507081135 10 132 11.3 12.9 0.00 0.00 0.00 80 1014.6
20260507080628 10 129 6.4 9.7 0.00 0.00 0.00 79 1014.6
20260507080120 10 156 8.0 9.7 0.00 0.00 0.00 76 1014.6
20260507075613 10 132 3.2 9.7 0.00 0.00 0.00 78 1014.7
20260507075105 10 209 9.7 11.3 0.00 0.00 0.00 74 1014.8
20260507074557 10 252 6.4 12.9 0.00 0.00 0.00 72 1014.6
20260507074050 9 222 6.4 12.9 0.00 0.00 0.00 77 1014.3
20260507073542 9 216 6.4 6.4 0.00 0.00 0.00 78 1014.1
20260507073035 8 162 6.4 11.3 0.00 0.00 0.00 80 1014.4
20260507072527 8 124 3.2 8.0 0.00 0.00 0.00 83 1014.5
20260507072020 8 151 4.8 9.7 0.00 0.00 0.00 83 1014.5
20260507071512 8 196 8.0 14.5 0.00 0.00 0.00 81 1014.2
20260507071005 8 145 4.8 11.3 0.00 0.00 0.00 83 1014.2
20260507070457 8 139 6.4 8.0 0.00 0.00 0.00 83 1014.5
20260507065950 8 150 8.0 9.7 0.00 0.00 0.00 83 1014.4
20260507065443 8 206 4.8 9.7 0.00 0.00 0.00 81 1014.5
20260507064936 8 209 11.3 12.9 0.00 0.00 0.00 80 1014.4
20260507064428 8 284 0.0 8.0 0.00 0.00 0.00 80 1014.7
20260507063920 8 355 4.8 4.8 0.00 0.00 0.00 82 1014.5
20260507063413 8 73 1.6 6.4 0.00 0.00 0.00 82 1014.4
20260507062906 8 309 0.0 6.4 0.00 0.00 0.00 83 1014.3
20260507062359 7 49 1.6 4.8 0.00 0.00 0.00 83 1014.1
20260507061851 7 177 0.0 4.8 0.00 0.00 0.00 84 1014.5
20260507061343 7 262 3.2 6.4 0.00 0.00 0.00 86 1013.7
20260507060835 7 345 1.6 4.8 0.00 0.00 0.00 86 1014.3
20260507060328 7 32 3.2 3.2 0.00 0.00 0.00 85 1014.3
20260507055820 7 17 0.0 6.4 0.00 0.00 0.00 86 1013.9
20260507055313 7 201 0.0 6.4 0.00 0.00 0.00 88 1014.0
20260507054806 7 33 3.2 6.4 0.00 0.00 0.00 87 1013.9
20260507054258 6 359 6.4 6.4 0.00 0.00 0.00 88 1013.9
20260507053751 6 0 3.2 6.4 0.00 0.00 0.00 88 1014.0
20260507053244 6 295 4.8 4.8 0.00 0.00 0.00 88 1013.8
20260507052737 6 57 3.2 9.7 0.00 0.00 0.00 87 1013.9
20260507052229 6 131 0.0 6.4 0.00 0.00 0.00 88 1014.1
20260507051722 6 88 4.8 6.4 0.00 0.00 0.00 87 1013.5
20260507051214 6 320 3.2 8.0 0.00 0.00 0.00 87 1013.8
20260507050707 6 93 0.0 8.0 0.00 0.00 0.00 86 1013.9
20260507050200 6 49 6.4 8.0 0.00 0.00 0.00 87 1013.7
20260507045652 6 357 4.8 8.0 0.00 0.00 0.00 87 1013.6
20260507044637 6 15 4.8 8.0 0.00 0.00 0.00 87 1013.5
20260507044130 6 75 6.4 8.0 0.00 0.00 0.00 87 1013.7
20260507043623 6 350 1.6 11.3 0.00 0.00 0.00 88 1013.7
20260507043115 6 63 3.2 4.8 0.00 0.00 0.00 86 1013.5
20260507042608 6 359 4.8 6.4 0.00 0.00 0.00 86 1014.0
20260507042100 6 166 1.6 3.2 0.00 0.00 0.00 86 1013.5
20260507041553 6 7 4.8 6.4 0.00 0.00 0.00 86 1013.5
20260507041045 6 4 3.2 4.8 0.00 0.00 0.00 86 1013.6
20260507040538 6 355 1.6 4.8 0.00 0.00 0.00 86 1013.1
20260507040030 6 42 4.8 4.8 0.00 0.00 0.00 86 1013.5
20260507035522 6 351 3.2 3.2 0.00 0.00 0.00 86 1013.2
20260507035015 6 47 6.4 6.4 0.00 0.00 0.00 86 1013.4
20260507034508 6 40 0.0 1.6 0.00 0.00 0.00 85 1013.3
20260507034001 6 17 3.2 3.2 0.00 0.00 0.00 86 1013.5
20260507033453 6 85 1.6 3.2 0.00 0.00 0.00 86 1013.3
20260507032946 6 269 0.0 4.8 0.00 0.00 0.00 85 1013.4
20260507032439 6 5 0.0 4.8 0.00 0.00 0.00 85 1013.2
20260507031931 6 15 1.6 4.8 0.00 0.00 0.00 84 1013.3
20260507031426 6 348 0.0 4.8 0.00 0.00 0.00 86 1013.1
20260507030917 6 110 3.2 3.2 0.00 0.00 0.00 85 1012.9
20260507030409 6 58 3.2 4.8 0.00 0.00 0.00 85 1013.2
20260507025902 6 11 3.2 4.8 0.00 0.00 0.00 83 1013.0
20260507025354 6 39 3.2 4.8 0.00 0.00 0.00 83 1013.6
20260507024847 6 81 4.8 4.8 0.00 0.00 0.00 83 1013.2
20260507024339 6 84 0.0 3.2 0.00 0.00 0.00 84 1013.1
20260507023832 6 134 3.2 4.8 0.00 0.00 0.00 83 1013.4
20260507022817 6 8 3.2 6.4 0.00 0.00 0.00 83 1013.0
20260507022310 6 15 3.2 6.4 0.00 0.00 0.00 84 1013.2
20260507021803 6 108 3.2 8.0 0.00 0.00 0.00 85 1013.1
20260507021255 6 79 4.8 6.4 0.00 0.00 0.00 85 1012.9
20260507020748 6 309 1.6 4.8 0.00 0.00 0.00 84 1012.9
20260507020241 6 154 0.0 9.7 0.00 0.00 0.00 84 1013.0
20260507015733 6 307 1.6 6.4 0.00 0.00 0.00 85 1012.8
20260507015226 6 45 0.0 4.8 0.00 0.00 0.00 85 1013.0
20260507014719 6 357 3.2 4.8 0.00 0.00 0.00 84 1013.3
20260507014211 6 169 1.6 4.8 0.00 0.00 0.00 84 1012.8
20260507013704 6 81 3.2 4.8 0.00 0.00 0.00 83 1012.8
20260507013156 6 345 4.8 4.8 0.00 0.00 0.00 84 1012.8
20260507012649 6 37 4.8 6.4 0.00 0.00 0.00 84 1012.9
20260507012141 6 45 3.2 4.8 0.00 0.00 0.00 85 1012.6
20260507011634 6 342 0.0 6.4 0.00 0.00 0.00 83 1012.4
20260507011126 6 12 4.8 6.4 0.00 0.00 0.00 82 1012.9
20260507010618 6 277 1.6 4.8 0.00 0.00 0.00 81 1012.8
20260507010111 6 330 0.0 9.7 0.00 0.00 0.00 81 1012.7
20260507005603 6 63 3.2 4.8 0.00 0.00 0.00 83 1012.4
20260507005056 6 43 3.2 6.4 0.00 0.00 0.00 83 1013.1
20260507004548 6 9 4.8 8.0 0.00 0.00 0.00 83 1012.8
20260507004041 6 142 3.2 6.4 0.00 0.00 0.00 83 1012.8
20260507003533 6 34 1.6 4.8 0.00 0.00 0.00 83 1013.1
20260507003026 6 318 3.2 8.0 0.00 0.00 0.00 82 1012.9
20260507002518 6 185 0.0 6.4 0.00 0.00 0.00 83 1012.8
20260507002011 6 274 1.6 11.3 0.00 0.00 0.00 82 1012.9
20260507001504 6 111 6.4 8.0 0.00 0.00 0.00 84 1012.9
20260507000957 6 92 3.2 3.2 0.00 0.00 0.00 84 1012.9
20260507000450 6 74 3.2 8.0 0.00 0.00 0.00 84 1012.8
20260506235942 6 250 4.8 6.4 0.00 0.00 0.00 84 1013.4
20260506235434 6 213 3.2 3.2 0.00 0.00 0.00 85 1012.8
20260506234927 6 84 3.2 4.8 0.00 0.00 0.00 84 1012.6
20260506234419 6 20 0.0 6.4 0.00 0.00 0.00 85 1012.9
20260506233911 6 45 0.0 4.8 0.00 0.00 0.00 84 1013.2
20260506233404 6 130 3.2 6.4 0.00 0.00 0.00 83 1012.7
20260506232856 7 176 4.8 11.3 0.00 0.00 0.00 81 1013.0
20260506232348 6 203 3.2 4.8 0.00 0.00 0.00 83 1012.2
20260506231841 6 124 6.4 6.4 0.00 0.00 0.00 83 1012.5
20260506231333 6 182 3.2 8.0 0.00 0.00 0.00 82 1012.7
20260506230825 7 255 6.4 6.4 0.00 0.00 0.00 82 1012.5
20260506230318 7 95 4.8 4.8 0.00 0.00 0.00 81 1012.7
20260506225811 7 25 3.2 4.8 0.00 0.00 0.00 82 1012.9
20260506225305 7 45 4.8 6.4 0.00 0.00 0.00 81 1012.2
20260506224756 6 348 3.2 11.3 0.00 0.00 0.00 82 1012.2
20260506224248 6 292 6.4 6.4 0.00 0.00 0.00 84 1012.7
20260506223741 6 30 3.2 4.8 0.00 0.00 0.00 85 1012.5
20260506223234 6 317 3.2 9.7 0.00 0.00 0.00 84 1012.6
20260506222726 6 272 6.4 14.5 0.00 0.00 0.00 84 1012.4
20260506222219 6 330 6.4 14.5 0.00 0.00 0.00 86 1012.7
20260506221711 6 30 3.2 6.4 0.00 0.00 0.00 87 1012.3
20260506221203 6 164 0.0 9.7 0.00 0.00 0.00 87 1012.6
20260506220656 6 249 3.2 8.0 0.00 0.00 0.00 87 1012.9
20260506220148 6 64 0.0 11.3 0.00 0.00 0.00 86 1012.7
20260506215641 6 325 3.2 6.4 0.00 0.89 0.89 88 1012.6
20260506215133 6 234 3.2 9.7 0.00 0.89 0.89 86 1012.5
20260506214626 6 55 0.0 4.8 0.00 0.89 0.89 87 1012.5
20260506214119 6 47 1.6 6.4 0.00 0.89 0.89 87 1012.7
20260506213611 6 139 3.2 4.8 0.00 0.89 0.89 87 1012.3
20260506213103 6 47 4.8 9.7 0.00 0.89 0.89 85 1012.8
20260506212555 6 41 4.8 6.4 0.00 0.89 0.89 86 1012.3
20260506212047 6 66 3.2 4.8 0.00 0.89 0.89 86 1012.7
20260506211539 6 115 1.6 8.0 0.00 0.89 0.89 85 1012.5
20260506211031 6 325 1.6 4.8 0.00 0.89 0.89 84 1012.6
20260506210523 6 0 3.2 3.2 0.03 0.89 0.89 84 1012.3
20260506210015 6 317 4.8 6.4 0.03 0.89 0.89 82 1012.5
20260506205508 6 353 6.4 8.0 0.03 0.89 0.89 82 1012.2
20260506205000 6 323 4.8 11.3 0.03 0.89 0.89 82 1011.8
20260506204452 6 316 9.7 9.7 0.03 0.89 0.89 83 1012.0
20260506203945 6 272 3.2 9.7 0.03 0.89 0.89 84 1012.1
20260506203437 6 356 3.2 6.4 0.03 0.89 0.89 85 1012.5